Year,Month,Day,Hour,Minute,Value (Times are PST for temperature in C)
2017,05,18,00,00,10.70
2017,05,18,00,01,10.70
2017,05,18,00,02,10.70
2017,05,18,00,03,10.70
2017,05,18,00,04,10.70
2017,05,18,00,05,10.70
2017,05,18,00,06,10.70
2017,05,18,00,07,10.70
2017,05,18,00,08,10.70
2017,05,18,00,09,10.60
2017,05,18,00,10,10.60
2017,05,18,00,11,10.60
2017,05,18,00,12,10.60
2017,05,18,00,13,10.60
2017,05,18,00,14,10.60
2017,05,18,00,15,10.60
2017,05,18,00,16,10.60
2017,05,18,00,17,10.60
2017,05,18,00,18,10.60
2017,05,18,00,19,10.50
2017,05,18,00,20,10.50
2017,05,18,00,21,10.50
2017,05,18,00,22,10.50
2017,05,18,00,23,10.50
2017,05,18,00,24,10.50
2017,05,18,00,25,10.50
2017,05,18,00,26,10.50
2017,05,18,00,27,10.50
2017,05,18,00,28,10.40
2017,05,18,00,29,10.40
2017,05,18,00,30,10.40
2017,05,18,00,31,10.40
2017,05,18,00,32,10.40
2017,05,18,00,33,10.40
2017,05,18,00,34,10.40
2017,05,18,00,35,10.40
2017,05,18,00,36,10.40
2017,05,18,00,37,10.40
2017,05,18,00,38,10.40
2017,05,18,00,39,10.40
2017,05,18,00,40,10.40
2017,05,18,00,41,10.40
2017,05,18,00,42,10.40
2017,05,18,00,43,10.40
2017,05,18,00,44,10.40
2017,05,18,00,45,10.40
2017,05,18,00,46,10.40
2017,05,18,00,47,10.40
2017,05,18,00,48,10.40
2017,05,18,00,49,10.40
2017,05,18,00,50,10.40
2017,05,18,00,51,10.40
2017,05,18,00,52,10.40
2017,05,18,00,53,10.40
2017,05,18,00,54,10.40
2017,05,18,00,55,10.40
2017,05,18,00,56,10.40
2017,05,18,00,57,10.40
2017,05,18,00,58,10.40
2017,05,18,00,59,10.40
2017,05,18,01,00,10.40
2017,05,18,01,01,10.40
2017,05,18,01,02,10.40
2017,05,18,01,03,10.40
2017,05,18,01,04,10.40
2017,05,18,01,05,10.30
2017,05,18,01,06,10.30
2017,05,18,01,07,10.30
2017,05,18,01,08,10.30
2017,05,18,01,09,10.30
2017,05,18,01,10,10.30
2017,05,18,01,11,10.30
2017,05,18,01,12,10.30
2017,05,18,01,13,10.30
2017,05,18,01,14,10.30
2017,05,18,01,15,10.30
2017,05,18,01,16,10.20
2017,05,18,01,17,10.20
2017,05,18,01,18,10.20
2017,05,18,01,19,10.20
2017,05,18,01,20,10.20
2017,05,18,01,21,10.20
2017,05,18,01,22,10.20
2017,05,18,01,23,10.10
2017,05,18,01,24,10.10
2017,05,18,01,25,10.10
2017,05,18,01,26,10.10
2017,05,18,01,27,10.10
2017,05,18,01,28,10.10
2017,05,18,01,29,10.00
2017,05,18,01,30,10.00
2017,05,18,01,31,10.00
2017,05,18,01,32,9.90
2017,05,18,01,33,9.90
2017,05,18,01,34,9.90
2017,05,18,01,35,9.90
2017,05,18,01,36,9.90
2017,05,18,01,37,9.90
2017,05,18,01,38,9.80
2017,05,18,01,39,9.80
2017,05,18,01,40,9.80
2017,05,18,01,41,9.80
2017,05,18,01,42,9.80
2017,05,18,01,43,9.80
2017,05,18,01,44,9.80
2017,05,18,01,45,9.80
2017,05,18,01,46,9.80
2017,05,18,01,47,9.70
2017,05,18,01,48,9.70
2017,05,18,01,49,9.70
2017,05,18,01,50,9.70
2017,05,18,01,51,9.70
2017,05,18,01,52,9.70
2017,05,18,01,53,9.70
2017,05,18,01,54,9.70
2017,05,18,01,55,9.70
2017,05,18,01,56,9.70
2017,05,18,01,57,9.70
2017,05,18,01,58,9.70
2017,05,18,01,59,9.70
2017,05,18,02,00,9.70
2017,05,18,02,01,9.70
2017,05,18,02,02,9.70
2017,05,18,02,03,9.70
2017,05,18,02,04,9.60
2017,05,18,02,05,9.60
2017,05,18,02,06,9.60
2017,05,18,02,07,9.60
2017,05,18,02,08,9.60
2017,05,18,02,09,9.60
2017,05,18,02,10,9.60
2017,05,18,02,11,9.50
2017,05,18,02,12,9.50
2017,05,18,02,13,9.50
2017,05,18,02,14,9.50
2017,05,18,02,15,9.40
2017,05,18,02,16,9.40
2017,05,18,02,17,9.40
2017,05,18,02,18,9.40
2017,05,18,02,19,9.40
2017,05,18,02,20,9.30
2017,05,18,02,21,9.30
2017,05,18,02,22,9.30
2017,05,18,02,23,9.30
2017,05,18,02,24,9.30
2017,05,18,02,25,9.30
2017,05,18,02,26,9.30
2017,05,18,02,27,9.20
2017,05,18,02,28,9.20
2017,05,18,02,29,9.20
2017,05,18,02,30,9.20
2017,05,18,02,31,9.20
2017,05,18,02,32,9.20
2017,05,18,02,33,9.20
2017,05,18,02,34,9.20
2017,05,18,02,35,9.10
2017,05,18,02,36,9.10
2017,05,18,02,37,9.10
2017,05,18,02,38,9.10
2017,05,18,02,39,9.10
2017,05,18,02,40,9.10
2017,05,18,02,41,9.10
2017,05,18,02,42,9.10
2017,05,18,02,43,9.10
2017,05,18,02,44,9.10
2017,05,18,02,45,9.10
2017,05,18,02,46,9.10
2017,05,18,02,47,9.00
2017,05,18,02,48,9.00
2017,05,18,02,49,9.00
2017,05,18,02,50,9.00
2017,05,18,02,51,9.00
2017,05,18,02,52,9.00
2017,05,18,02,53,9.00
2017,05,18,02,54,8.90
2017,05,18,02,55,8.90
2017,05,18,02,56,8.90
2017,05,18,02,57,8.90
2017,05,18,02,58,8.90
2017,05,18,02,59,8.90
2017,05,18,03,00,8.90
2017,05,18,03,01,8.90
2017,05,18,03,02,8.90
2017,05,18,03,03,8.90
2017,05,18,03,04,8.90
2017,05,18,03,05,8.80
2017,05,18,03,06,8.80
2017,05,18,03,07,8.80
2017,05,18,03,08,8.80
2017,05,18,03,09,8.80
2017,05,18,03,10,8.80
2017,05,18,03,11,8.80
2017,05,18,03,12,8.80
2017,05,18,03,13,8.80
2017,05,18,03,14,8.80
2017,05,18,03,15,8.80
2017,05,18,03,16,8.80
2017,05,18,03,17,8.80
2017,05,18,03,18,8.80
2017,05,18,03,19,8.70
2017,05,18,03,20,8.70
2017,05,18,03,21,8.70
2017,05,18,03,22,8.70
2017,05,18,03,23,8.70
2017,05,18,03,24,8.70
2017,05,18,03,25,8.70
2017,05,18,03,26,8.70
2017,05,18,03,27,8.80
2017,05,18,03,28,8.80
2017,05,18,03,29,8.80
2017,05,18,03,30,8.80
2017,05,18,03,31,8.80
2017,05,18,03,32,8.80
2017,05,18,03,33,8.80
2017,05,18,03,34,8.80
2017,05,18,03,35,8.80
2017,05,18,03,36,8.80
2017,05,18,03,37,8.80
2017,05,18,03,38,8.80
2017,05,18,03,39,8.80
2017,05,18,03,40,8.80
2017,05,18,03,41,8.80
2017,05,18,03,42,8.80
2017,05,18,03,43,8.80
2017,05,18,03,44,8.80
2017,05,18,03,45,8.80
2017,05,18,03,46,8.80
2017,05,18,03,47,8.80
2017,05,18,03,48,8.80
2017,05,18,03,49,8.80
2017,05,18,03,50,8.80
2017,05,18,03,51,8.80
2017,05,18,03,52,8.80
2017,05,18,03,53,8.80
2017,05,18,03,54,8.80
2017,05,18,03,55,8.80
2017,05,18,03,56,8.80
2017,05,18,03,57,8.80
2017,05,18,03,58,8.80
2017,05,18,03,59,8.80
2017,05,18,04,00,8.70
2017,05,18,04,01,8.70
2017,05,18,04,02,8.70
2017,05,18,04,03,8.70
2017,05,18,05,04,8.90
2017,05,18,05,05,8.90
2017,05,18,05,06,8.90
2017,05,18,05,07,8.90
2017,05,18,05,08,8.90
2017,05,18,05,09,8.90
2017,05,18,05,10,8.90
2017,05,18,05,11,9.00
2017,05,18,05,12,8.90
2017,05,18,05,13,9.00
2017,05,18,05,14,9.00
2017,05,18,05,15,9.00
2017,05,18,05,16,9.00
2017,05,18,05,17,9.00
2017,05,18,05,18,9.00
2017,05,18,05,19,8.90
2017,05,18,05,20,8.90
2017,05,18,05,21,8.90
2017,05,18,05,22,8.90
2017,05,18,05,23,8.90
2017,05,18,05,24,8.90
2017,05,18,05,25,8.90
2017,05,18,05,26,8.90
2017,05,18,05,27,8.90
2017,05,18,05,28,8.90
2017,05,18,05,29,8.90
2017,05,18,05,30,8.90
2017,05,18,05,31,8.90
2017,05,18,05,32,8.90
2017,05,18,05,33,8.90
2017,05,18,05,34,8.90
2017,05,18,05,35,8.90
2017,05,18,05,36,8.90
2017,05,18,05,37,8.90
2017,05,18,05,38,8.90
2017,05,18,05,39,8.90
2017,05,18,05,40,8.90
2017,05,18,05,41,8.90
2017,05,18,05,42,8.90
2017,05,18,05,43,8.90
2017,05,18,05,44,8.90
2017,05,18,05,45,8.90
2017,05,18,05,46,9.00
2017,05,18,05,47,9.00
2017,05,18,05,48,9.00
2017,05,18,05,49,9.00
2017,05,18,05,50,9.00
2017,05,18,05,51,9.00
2017,05,18,05,52,9.00
2017,05,18,05,53,9.00
2017,05,18,05,54,9.00
2017,05,18,05,55,9.00
2017,05,18,05,56,9.00
2017,05,18,05,57,9.00
2017,05,18,05,58,9.00
2017,05,18,05,59,9.10
2017,05,18,06,00,9.10
2017,05,18,06,01,9.10
2017,05,18,06,02,9.10
2017,05,18,06,03,9.10
2017,05,18,06,04,9.10
2017,05,18,06,05,9.10
2017,05,18,06,06,9.10
2017,05,18,06,07,9.10
2017,05,18,06,08,9.10
2017,05,18,06,09,9.20
2017,05,18,06,10,9.20
2017,05,18,06,11,9.20
2017,05,18,06,12,9.20
2017,05,18,06,13,9.20
2017,05,18,06,14,9.20
2017,05,18,06,15,9.30
2017,05,18,06,16,9.30
2017,05,18,06,17,9.30
2017,05,18,06,18,9.30
2017,05,18,06,19,9.30
2017,05,18,06,20,9.30
2017,05,18,06,21,9.30
2017,05,18,06,22,9.30
2017,05,18,06,23,9.30
2017,05,18,06,24,9.30
2017,05,18,06,25,9.40
2017,05,18,06,26,9.40
2017,05,18,06,27,9.40
2017,05,18,06,28,9.40
2017,05,18,06,29,9.40
2017,05,18,06,30,9.40
2017,05,18,06,31,9.40
2017,05,18,06,32,9.40
2017,05,18,06,33,9.40
2017,05,18,06,34,9.40
2017,05,18,06,35,9.40
2017,05,18,06,36,9.40
2017,05,18,06,37,9.40
2017,05,18,06,38,9.40
2017,05,18,06,39,9.40
2017,05,18,06,40,9.40
2017,05,18,06,41,9.40
2017,05,18,06,42,9.40
2017,05,18,06,43,9.40
2017,05,18,06,44,9.40
2017,05,18,06,45,9.40
2017,05,18,06,46,9.40
2017,05,18,06,47,9.40
2017,05,18,06,48,9.40
2017,05,18,06,49,9.40
2017,05,18,06,50,9.40
2017,05,18,06,51,9.40
2017,05,18,06,52,9.40
2017,05,18,06,53,9.40
2017,05,18,06,54,9.40
2017,05,18,06,55,9.40
2017,05,18,06,56,9.50
2017,05,18,06,57,9.50
2017,05,18,06,58,9.60
2017,05,18,06,59,9.60
2017,05,18,07,00,9.70
2017,05,18,07,01,9.70
2017,05,18,07,02,9.80
2017,05,18,07,03,9.80
2017,05,18,07,04,9.80
2017,05,18,07,05,9.90
2017,05,18,07,06,9.90
2017,05,18,07,07,10.00
2017,05,18,07,08,10.00
2017,05,18,07,09,10.00
2017,05,18,07,10,10.00
2017,05,18,07,11,10.10
2017,05,18,07,12,10.10
2017,05,18,07,13,10.10
2017,05,18,07,14,10.10
2017,05,18,07,15,10.10
2017,05,18,07,16,10.20
2017,05,18,07,17,10.20
2017,05,18,07,18,10.20
2017,05,18,07,19,10.20
2017,05,18,07,20,10.30
2017,05,18,07,21,10.30
2017,05,18,07,22,10.30
2017,05,18,07,23,10.30
2017,05,18,07,24,10.40
2017,05,18,07,25,10.40
2017,05,18,07,26,10.40
2017,05,18,07,27,10.40
2017,05,18,07,28,10.40
2017,05,18,07,29,10.40
2017,05,18,07,30,10.40
2017,05,18,07,31,10.40
2017,05,18,07,32,10.40
2017,05,18,07,33,10.40
2017,05,18,07,34,10.40
2017,05,18,07,35,10.40
2017,05,18,07,36,10.40
2017,05,18,07,37,10.50
2017,05,18,07,38,10.50
2017,05,18,07,39,10.50
2017,05,18,07,40,10.50
2017,05,18,07,41,10.60
2017,05,18,07,42,10.60
2017,05,18,07,43,10.60
2017,05,18,07,44,10.60
2017,05,18,07,45,10.70
2017,05,18,07,46,10.70
2017,05,18,07,47,10.80
2017,05,18,07,48,10.80
2017,05,18,07,49,10.90
2017,05,18,07,50,10.90
2017,05,18,07,51,11.00
2017,05,18,07,52,11.00
2017,05,18,07,53,11.10
2017,05,18,07,54,11.20
2017,05,18,07,55,11.20
2017,05,18,07,56,11.30
2017,05,18,07,57,11.30
2017,05,18,07,58,11.50
2017,05,18,07,59,11.50
2017,05,18,08,00,11.60
2017,05,18,08,01,11.70
2017,05,18,08,02,11.70
2017,05,18,08,03,11.80
2017,05,18,08,04,11.90
2017,05,18,08,05,12.00
2017,05,18,08,06,12.10
2017,05,18,08,07,12.10
2017,05,18,08,08,12.20
2017,05,18,08,09,12.20
2017,05,18,08,10,12.30
2017,05,18,08,11,12.40
2017,05,18,08,12,12.50
2017,05,18,08,13,12.50
2017,05,18,08,14,12.60
2017,05,18,08,15,12.60
2017,05,18,08,16,12.60
2017,05,18,08,17,12.60
2017,05,18,08,18,12.60
2017,05,18,08,19,12.60
2017,05,18,08,20,12.60
2017,05,18,08,21,12.70
2017,05,18,08,22,12.60
2017,05,18,08,23,12.60
2017,05,18,08,24,12.60
2017,05,18,08,25,12.60
2017,05,18,08,26,12.60
2017,05,18,08,27,12.60
2017,05,18,08,28,12.70
2017,05,18,08,29,12.80
2017,05,18,08,30,12.80
2017,05,18,08,31,12.80
2017,05,18,08,32,12.80
2017,05,18,08,33,12.80
2017,05,18,08,34,12.90
2017,05,18,08,35,12.90
2017,05,18,08,36,12.90
2017,05,18,08,37,13.00
2017,05,18,08,38,13.00
2017,05,18,08,39,13.00
2017,05,18,08,40,13.00
2017,05,18,08,41,13.00
2017,05,18,08,42,13.00
2017,05,18,08,43,13.00
2017,05,18,08,44,13.10
2017,05,18,08,45,13.10
2017,05,18,08,46,13.20
2017,05,18,08,47,13.20
2017,05,18,08,48,13.30
2017,05,18,08,49,13.40
2017,05,18,08,50,13.40
2017,05,18,08,51,13.50
2017,05,18,08,52,13.60
2017,05,18,08,53,13.60
2017,05,18,08,54,13.60
2017,05,18,08,55,13.60
2017,05,18,08,56,13.60
2017,05,18,08,57,13.70
2017,05,18,08,58,13.70
2017,05,18,08,59,13.80
2017,05,18,09,00,13.80
2017,05,18,09,01,13.80
2017,05,18,09,02,13.90
2017,05,18,09,03,13.80
2017,05,18,09,04,13.80
2017,05,18,09,05,13.80
2017,05,18,09,06,13.80
2017,05,18,09,07,13.80
2017,05,18,09,08,13.80
2017,05,18,09,09,13.80
2017,05,18,09,10,13.80
2017,05,18,09,11,13.80
2017,05,18,09,12,13.90
2017,05,18,09,13,13.90
2017,05,18,09,14,14.00
2017,05,18,09,15,14.00
2017,05,18,09,16,14.00
2017,05,18,09,17,14.00
2017,05,18,09,18,14.00
2017,05,18,09,19,14.00
2017,05,18,09,20,14.00
2017,05,18,09,21,14.10
2017,05,18,09,22,14.10
2017,05,18,09,23,14.20
2017,05,18,09,24,14.40
2017,05,18,09,25,14.50
2017,05,18,09,26,14.60
2017,05,18,09,27,14.70
2017,05,18,09,28,14.80
2017,05,18,09,29,14.80
2017,05,18,09,30,14.80
2017,05,18,09,31,14.80
2017,05,18,09,32,14.80
2017,05,18,09,33,14.80
2017,05,18,09,34,14.80
2017,05,18,09,35,14.70
2017,05,18,09,36,14.70
2017,05,18,09,37,14.70
2017,05,18,09,38,14.60
2017,05,18,09,39,14.60
2017,05,18,09,40,14.60
2017,05,18,09,41,14.50
2017,05,18,09,42,14.50
2017,05,18,09,43,14.50
2017,05,18,09,44,14.40
2017,05,18,09,45,14.40
2017,05,18,09,46,14.30
2017,05,18,09,47,14.30
2017,05,18,09,48,14.30
2017,05,18,09,49,14.30
2017,05,18,09,50,14.30
2017,05,18,09,51,14.40
2017,05,18,09,52,14.40
2017,05,18,09,53,14.50
2017,05,18,09,54,14.60
2017,05,18,09,55,14.70
2017,05,18,09,56,14.70
2017,05,18,09,57,14.70
2017,05,18,09,58,14.70
2017,05,18,09,59,14.60
2017,05,18,10,00,14.60
2017,05,18,10,01,14.50
2017,05,18,10,02,14.50
2017,05,18,10,03,14.40
2017,05,18,10,04,14.40
2017,05,18,10,05,14.30
2017,05,18,10,06,14.30
2017,05,18,10,07,14.40
2017,05,18,10,08,14.40
2017,05,18,10,09,14.50
2017,05,18,10,10,14.60
2017,05,18,10,11,14.70
2017,05,18,10,12,14.80
2017,05,18,10,13,14.90
2017,05,18,10,14,15.00
2017,05,18,10,15,15.00
2017,05,18,10,16,15.10
2017,05,18,10,17,15.10
2017,05,18,10,18,15.20
2017,05,18,10,19,15.20
2017,05,18,10,20,15.30
2017,05,18,10,21,15.30
2017,05,18,10,22,15.20
2017,05,18,10,23,15.20
2017,05,18,10,24,15.20
2017,05,18,10,25,15.20
2017,05,18,10,26,15.30
2017,05,18,10,27,15.30
2017,05,18,10,28,15.30
2017,05,18,10,29,15.20
2017,05,18,10,30,15.20
2017,05,18,10,31,15.10
2017,05,18,10,32,15.00
2017,05,18,10,33,15.00
2017,05,18,10,34,15.00
2017,05,18,10,35,15.10
2017,05,18,10,36,15.20
2017,05,18,10,37,15.20
2017,05,18,10,38,15.30
2017,05,18,10,39,15.40
2017,05,18,10,40,15.30
2017,05,18,10,41,15.20
2017,05,18,10,42,15.20
2017,05,18,10,43,15.20
2017,05,18,10,44,15.20
2017,05,18,10,45,15.30
2017,05,18,10,46,15.30
2017,05,18,10,47,15.40
2017,05,18,10,48,15.50
2017,05,18,10,49,15.60
2017,05,18,10,50,15.70
2017,05,18,10,51,15.80
2017,05,18,10,52,15.90
2017,05,18,10,53,15.90
2017,05,18,10,54,15.90
2017,05,18,10,55,15.80
2017,05,18,10,56,15.70
2017,05,18,10,57,15.60
2017,05,18,10,58,15.50
2017,05,18,10,59,15.40
2017,05,18,11,00,15.30
2017,05,18,11,01,15.30
2017,05,18,11,02,15.30
2017,05,18,11,03,15.30
2017,05,18,11,04,15.30
2017,05,18,11,05,15.30
2017,05,18,11,06,15.30
2017,05,18,11,07,15.30
2017,05,18,11,08,15.30
2017,05,18,11,09,15.20
2017,05,18,11,10,15.20
2017,05,18,11,11,15.10
2017,05,18,11,12,15.00
2017,05,18,11,13,14.90
2017,05,18,11,14,14.90
2017,05,18,11,15,14.80
2017,05,18,11,16,14.80
2017,05,18,11,17,14.80
2017,05,18,11,18,14.80
2017,05,18,11,19,14.80
2017,05,18,11,20,14.80
2017,05,18,11,21,14.80
2017,05,18,11,22,14.90
2017,05,18,11,23,15.00
2017,05,18,11,24,15.00
2017,05,18,11,25,15.00
2017,05,18,11,26,14.90
2017,05,18,11,27,14.90
2017,05,18,11,28,15.00
2017,05,18,11,29,15.00
2017,05,18,11,30,15.00
2017,05,18,11,31,15.00
2017,05,18,11,32,15.00
2017,05,18,11,33,15.10
2017,05,18,11,34,15.10
2017,05,18,11,35,15.00
2017,05,18,11,36,14.90
2017,05,18,11,37,14.90
2017,05,18,11,38,14.90
2017,05,18,11,39,14.90
2017,05,18,11,40,15.00
2017,05,18,11,41,15.00
2017,05,18,11,42,15.10
2017,05,18,11,43,15.20
2017,05,18,11,44,15.20
2017,05,18,11,45,15.30
2017,05,18,11,46,15.40
2017,05,18,11,47,15.40
2017,05,18,11,48,15.40
2017,05,18,11,49,15.50
2017,05,18,11,50,15.50
2017,05,18,11,51,15.60
2017,05,18,11,52,15.60
2017,05,18,11,53,15.60
2017,05,18,11,54,15.70
2017,05,18,11,55,15.70
2017,05,18,11,56,15.70
2017,05,18,11,57,15.70
2017,05,18,11,58,15.80
2017,05,18,11,59,15.80
2017,05,18,12,00,15.80
2017,05,18,12,01,15.70
2017,05,18,12,02,15.70
2017,05,18,12,03,15.60
2017,05,18,12,04,15.50
2017,05,18,12,05,15.40
2017,05,18,12,06,15.30
2017,05,18,12,07,15.20
2017,05,18,12,08,15.20
2017,05,18,12,09,15.30
2017,05,18,12,10,15.30
2017,05,18,12,11,15.30
2017,05,18,12,12,15.30
2017,05,18,12,13,15.40
2017,05,18,12,14,15.40
2017,05,18,12,15,15.40
2017,05,18,12,16,15.40
2017,05,18,12,17,15.40
2017,05,18,12,18,15.50
2017,05,18,12,19,15.50
2017,05,18,12,20,15.50
2017,05,18,12,21,15.50
2017,05,18,12,22,15.50
2017,05,18,12,23,15.40
2017,05,18,12,24,15.40
2017,05,18,12,25,15.40
2017,05,18,12,26,15.30
2017,05,18,12,27,15.30
2017,05,18,12,28,15.30
2017,05,18,12,29,15.30
2017,05,18,12,30,15.30
2017,05,18,12,31,15.40
2017,05,18,12,32,15.40
2017,05,18,12,33,15.40
2017,05,18,12,34,15.40
2017,05,18,12,35,15.40
2017,05,18,12,36,15.40
2017,05,18,12,37,15.40
2017,05,18,12,38,15.50
2017,05,18,12,39,15.50
2017,05,18,12,40,15.60
2017,05,18,12,41,15.60
2017,05,18,12,42,15.60
2017,05,18,12,43,15.50
2017,05,18,12,44,15.40
2017,05,18,12,45,15.40
2017,05,18,12,46,15.40
2017,05,18,12,47,15.40
2017,05,18,12,48,15.30
2017,05,18,12,49,15.40
2017,05,18,12,50,15.40
2017,05,18,12,51,15.40
2017,05,18,12,52,15.50
2017,05,18,12,53,15.50
2017,05,18,12,54,15.50
2017,05,18,12,55,15.60
2017,05,18,12,56,15.60
2017,05,18,12,57,15.70
2017,05,18,12,58,15.70
2017,05,18,12,59,15.70
2017,05,18,13,00,15.80
2017,05,18,13,01,15.80
2017,05,18,13,02,15.80
2017,05,18,13,03,15.90
2017,05,18,13,04,15.90
2017,05,18,13,05,15.90
2017,05,18,13,06,16.00
2017,05,18,13,07,16.00
2017,05,18,13,08,16.10
2017,05,18,13,09,16.10
2017,05,18,13,10,16.10
2017,05,18,13,11,16.10
2017,05,18,13,12,16.10
2017,05,18,13,13,16.10
2017,05,18,13,14,16.10
2017,05,18,13,15,16.10
2017,05,18,13,16,16.00
2017,05,18,13,17,16.00
2017,05,18,13,18,16.00
2017,05,18,13,19,16.00
2017,05,18,13,20,16.10
2017,05,18,13,21,16.10
2017,05,18,13,22,16.10
2017,05,18,13,23,16.00
2017,05,18,13,24,16.00
2017,05,18,13,25,16.00
2017,05,18,13,26,16.00
2017,05,18,13,27,16.00
2017,05,18,13,28,15.80
2017,05,18,13,29,15.70
2017,05,18,13,30,15.60
2017,05,18,13,31,15.60
2017,05,18,13,32,15.60
2017,05,18,13,33,15.60
2017,05,18,13,34,15.60
2017,05,18,13,35,15.60
2017,05,18,13,36,15.60
2017,05,18,13,37,15.60
2017,05,18,13,38,15.60
2017,05,18,13,39,15.60
2017,05,18,13,40,15.60
2017,05,18,13,41,15.60
2017,05,18,13,42,15.60
2017,05,18,13,43,15.60
2017,05,18,13,44,15.50
2017,05,18,13,45,15.50
2017,05,18,13,46,15.40
2017,05,18,13,47,15.40
2017,05,18,13,48,15.30
2017,05,18,13,49,15.30
2017,05,18,13,50,15.30
2017,05,18,13,51,15.30
2017,05,18,13,52,15.30
2017,05,18,13,53,15.30
2017,05,18,13,54,15.20
2017,05,18,13,55,15.20
2017,05,18,13,56,15.20
2017,05,18,13,57,15.20
2017,05,18,13,58,15.20
2017,05,18,13,59,15.20
2017,05,18,14,00,15.30
2017,05,18,14,01,15.30
2017,05,18,14,02,15.20
2017,05,18,14,03,15.20
2017,05,18,14,04,15.30
2017,05,18,14,05,15.30
2017,05,18,14,06,15.30
2017,05,18,14,07,15.30
2017,05,18,14,08,15.30
2017,05,18,14,09,15.40
2017,05,18,14,10,15.30
2017,05,18,14,11,15.30
2017,05,18,14,12,15.30
2017,05,18,14,13,15.30
2017,05,18,14,14,15.30
2017,05,18,14,15,15.40
2017,05,18,14,16,15.50
2017,05,18,14,17,15.60
2017,05,18,14,18,15.60
2017,05,18,14,19,15.70
2017,05,18,14,20,15.80
2017,05,18,14,21,15.80
2017,05,18,14,22,15.90
2017,05,18,14,23,15.90
2017,05,18,14,24,16.00
2017,05,18,14,25,16.20
2017,05,18,14,26,16.20
2017,05,18,14,27,16.30
2017,05,18,14,28,16.30
2017,05,18,14,29,16.30
2017,05,18,14,30,16.30
2017,05,18,14,31,16.40
2017,05,18,14,32,16.50
2017,05,18,14,33,16.60
2017,05,18,14,34,16.60
2017,05,18,14,35,16.60
2017,05,18,14,36,16.60
2017,05,18,14,37,16.50
2017,05,18,14,38,16.50
2017,05,18,14,39,16.40
2017,05,18,14,40,16.40
2017,05,18,14,41,16.50
2017,05,18,14,42,16.50
2017,05,18,14,43,16.60
2017,05,18,14,44,16.70
2017,05,18,14,45,16.80
2017,05,18,14,46,16.80
2017,05,18,14,47,16.90
2017,05,18,14,48,16.90
2017,05,18,14,49,16.90
2017,05,18,14,50,16.90
2017,05,18,14,51,16.90
2017,05,18,14,52,16.90
2017,05,18,14,53,16.80
2017,05,18,14,54,16.80
2017,05,18,14,55,16.60
2017,05,18,14,56,16.50
2017,05,18,14,57,16.50
2017,05,18,14,58,16.50
2017,05,18,14,59,16.50
2017,05,18,15,00,16.50
2017,05,18,15,01,16.60
2017,05,18,15,02,16.60
2017,05,18,15,03,16.70
2017,05,18,15,04,16.70
2017,05,18,15,05,16.70
2017,05,18,15,06,16.70
2017,05,18,15,07,16.60
2017,05,18,15,08,16.60
2017,05,18,15,09,16.50
2017,05,18,15,10,16.40
2017,05,18,15,11,16.40
2017,05,18,15,12,16.30
2017,05,18,15,13,16.40
2017,05,18,15,14,16.40
2017,05,18,15,15,16.30
2017,05,18,15,16,16.20
2017,05,18,15,17,16.20
2017,05,18,15,18,16.10
2017,05,18,15,19,16.10
2017,05,18,15,20,16.20
2017,05,18,15,21,16.30
2017,05,18,15,22,16.40
2017,05,18,15,23,16.40
2017,05,18,15,24,16.50
2017,05,18,15,25,16.60
2017,05,18,15,26,16.60
2017,05,18,15,27,16.60
2017,05,18,15,28,16.60
2017,05,18,15,29,16.50
2017,05,18,15,30,16.50
2017,05,18,15,31,16.50
2017,05,18,15,32,16.50
2017,05,18,15,33,16.40
2017,05,18,15,34,16.40
2017,05,18,15,35,16.40
2017,05,18,15,36,16.40
2017,05,18,15,37,16.40
2017,05,18,15,38,16.40
2017,05,18,15,39,16.50
2017,05,18,15,40,16.60
2017,05,18,15,41,16.60
2017,05,18,15,42,16.70
2017,05,18,15,43,16.80
2017,05,18,15,44,16.80
2017,05,18,15,45,16.80
2017,05,18,15,46,16.80
2017,05,18,15,47,16.70
2017,05,18,15,48,16.70
2017,05,18,15,49,16.70
2017,05,18,15,50,16.80
2017,05,18,15,51,16.80
2017,05,18,15,52,16.90
2017,05,18,15,53,16.90
2017,05,18,15,54,17.00
2017,05,18,15,55,17.10
2017,05,18,15,56,17.20
2017,05,18,15,57,17.20
2017,05,18,15,58,17.20
2017,05,18,15,59,17.20
2017,05,18,16,00,17.20
2017,05,18,16,01,17.10
2017,05,18,16,02,17.10
2017,05,18,16,03,17.10
2017,05,18,16,04,17.10
2017,05,18,16,05,17.20
2017,05,18,16,06,17.20
2017,05,18,16,07,17.30
2017,05,18,16,08,17.20
2017,05,18,16,09,17.20
2017,05,18,16,10,17.20
2017,05,18,16,11,17.20
2017,05,18,16,12,17.20
2017,05,18,16,13,17.20
2017,05,18,16,14,17.10
2017,05,18,16,15,17.10
2017,05,18,16,16,17.10
2017,05,18,16,17,17.10
2017,05,18,16,18,17.10
2017,05,18,16,19,17.10
2017,05,18,16,20,17.00
2017,05,18,16,21,17.00
2017,05,18,16,22,16.90
2017,05,18,16,23,17.00
2017,05,18,16,24,17.00
2017,05,18,16,25,17.10
2017,05,18,16,26,17.20
2017,05,18,16,27,17.20
2017,05,18,16,28,17.20
2017,05,18,16,29,17.20
2017,05,18,16,30,17.10
2017,05,18,16,31,17.10
2017,05,18,16,32,17.10
2017,05,18,16,33,17.20
2017,05,18,16,34,17.20
2017,05,18,16,35,17.10
2017,05,18,16,36,17.10
2017,05,18,16,37,17.10
2017,05,18,16,38,17.00
2017,05,18,16,39,17.00
2017,05,18,16,40,16.90
2017,05,18,16,41,16.80
2017,05,18,16,42,16.80
2017,05,18,16,43,16.80
2017,05,18,16,44,16.80
2017,05,18,16,45,16.80
2017,05,18,16,46,16.80
2017,05,18,16,47,16.80
2017,05,18,16,48,16.80
2017,05,18,16,49,16.90
2017,05,18,16,50,16.90
2017,05,18,16,51,16.90
2017,05,18,16,52,17.00
2017,05,18,16,53,17.00
2017,05,18,16,54,17.00
2017,05,18,16,55,17.10
2017,05,18,16,56,17.10
2017,05,18,16,57,17.10
2017,05,18,16,58,17.20
2017,05,18,16,59,17.20
2017,05,18,17,00,17.20
2017,05,18,17,01,17.20
2017,05,18,17,02,17.20
2017,05,18,17,03,17.20
2017,05,18,17,04,17.20
2017,05,18,17,05,17.10
2017,05,18,17,06,17.10
2017,05,18,17,07,17.10
2017,05,18,17,08,17.10
2017,05,18,17,09,17.10
2017,05,18,17,10,17.10
2017,05,18,17,11,17.10
2017,05,18,17,12,17.10
2017,05,18,17,13,17.10
2017,05,18,17,14,17.00
2017,05,18,17,15,17.00
2017,05,18,17,16,17.00
2017,05,18,17,17,17.00
2017,05,18,17,18,17.10
2017,05,18,17,19,17.10
2017,05,18,17,20,17.10
2017,05,18,17,21,17.10
2017,05,18,17,22,17.10
2017,05,18,17,23,17.10
2017,05,18,17,24,17.10
2017,05,18,17,25,17.10
2017,05,18,17,26,17.10
2017,05,18,17,27,17.20
2017,05,18,17,28,17.20
2017,05,18,17,29,17.30
2017,05,18,17,30,17.30
2017,05,18,17,31,17.30
2017,05,18,17,32,17.30
2017,05,18,17,33,17.30
2017,05,18,17,34,17.20
2017,05,18,17,35,17.20
2017,05,18,17,36,17.20
2017,05,18,17,37,17.20
2017,05,18,17,38,17.20
2017,05,18,17,39,17.30
2017,05,18,17,40,17.30
2017,05,18,17,41,17.30
2017,05,18,17,42,17.40
2017,05,18,17,43,17.40
2017,05,18,17,44,17.40
2017,05,18,17,45,17.30
2017,05,18,17,46,17.30
2017,05,18,17,47,17.30
2017,05,18,17,48,17.30
2017,05,18,17,49,17.30
2017,05,18,17,50,17.20
2017,05,18,17,51,17.20
2017,05,18,17,52,17.10
2017,05,18,17,53,17.10
2017,05,18,17,54,17.10
2017,05,18,17,55,17.10
2017,05,18,17,56,17.10
2017,05,18,17,57,17.10
2017,05,18,17,58,17.10
2017,05,18,17,59,17.10
2017,05,18,18,00,17.10
2017,05,18,18,01,17.10
2017,05,18,18,02,17.10
2017,05,18,18,03,17.10
2017,05,18,18,04,17.10
2017,05,18,18,05,17.20
2017,05,18,18,06,17.20
2017,05,18,18,07,17.20
2017,05,18,18,08,17.20
2017,05,18,18,09,17.20
2017,05,18,18,10,17.20
2017,05,18,18,11,17.10
2017,05,18,18,12,17.10
2017,05,18,18,13,17.10
2017,05,18,18,14,17.10
2017,05,18,18,15,17.20
2017,05,18,18,16,17.20
2017,05,18,18,17,17.20
2017,05,18,18,18,17.20
2017,05,18,18,19,17.30
2017,05,18,18,20,17.20
2017,05,18,18,21,17.20
2017,05,18,18,22,17.20
2017,05,18,18,23,17.10
2017,05,18,18,24,17.10
2017,05,18,18,25,17.10
2017,05,18,18,26,17.10
2017,05,18,18,27,17.10
2017,05,18,18,28,17.10
2017,05,18,18,29,17.10
2017,05,18,18,30,17.10
2017,05,18,18,31,17.10